This is the latest recevied weather packets stored in our database for station/object WX5KDM. If no packets are shown the sender has not sent any weather packets the latest 1 day(s).
| Time | Temp. | Humidity | Pressure | Rain* | Wind** | Luminosity | Snow |
|---|---|---|---|---|---|---|---|
| 1778033199 | 21.67° C | 80% | 1009.7 hPa | 0 mm | 0.45 m/s, 197° | - | - |
| 1778032897 | 21.67° C | 80% | 1009.8 hPa | 0 mm | 0.45 m/s, 133° | - | - |
| 1778032594 | 21.67° C | 80% | 1009.9 hPa | 0 mm | 0 m/s | - | - |
| 1778032291 | 21.67° C | 80% | 1009.6 hPa | 0 mm | 0 m/s | - | - |
| 1778031989 | 21.67° C | 80% | 1009.7 hPa | 0 mm | 0 m/s | - | - |
| 1778031684 | 21.67° C | 80% | 1009.7 hPa | 0 mm | 0 m/s | - | - |
| 1778031383 | 21.67° C | 80% | 1009.8 hPa | 0 mm | 0.45 m/s, 118° | - | - |
| 1778031079 | 21.67° C | 80% | 1009.7 hPa | 0 mm | 0 m/s | - | - |
| 1778030775 | 21.67° C | 80% | 1009.8 hPa | 0 mm | 0 m/s | - | - |
| 1778030472 | 21.67° C | 80% | 1009.5 hPa | 0 mm | 0 m/s | - | - |
| 1778030170 | 21.67° C | 79% | 1009.5 hPa | 0 mm | 0 m/s | - | - |
| 1778029865 | 21.67° C | 79% | 1009.1 hPa | 0 mm | 0.45 m/s, 148° | - | - |
| 1778029559 | 21.67° C | 79% | 1009.1 hPa | 0 mm | 1.79 m/s, 100° | - | - |
| 1778029255 | 21.67° C | 79% | 1009.3 hPa | 0 mm | 0 m/s | - | - |
| 1778028953 | 21.67° C | 78% | 1009.1 hPa | 0 mm | 0.89 m/s, 159° | - | - |
| 1778028649 | 21.67° C | 78% | 1009.3 hPa | 0 mm | 2.24 m/s, 155° | - | - |
| 1778028346 | 21.67° C | 78% | 1009.3 hPa | 0 mm | 0.89 m/s, 154° | - | - |
| 1778028047 | 21.67° C | 78% | 1009.4 hPa | 0 mm | 0.89 m/s, 260° | - | - |
| 1778027739 | 21.67° C | 78% | 1009.2 hPa | 0 mm | 0.45 m/s, 204° | - | - |
| 1778027436 | 21.67° C | 78% | 1009.2 hPa | 0 mm | 0 m/s | - | - |
| 1778027131 | 21.67° C | 78% | 1009.2 hPa | 0 mm | 0.89 m/s, 170° | - | - |
| 1778026827 | 21.67° C | 77% | 1009.2 hPa | 0 mm | 0.89 m/s, 184° | - | - |
| 1778026524 | 21.67° C | 77% | 1009.6 hPa | 0 mm | 1.79 m/s, 129° | - | - |
| 1778026221 | 22.22° C | 77% | 1009.5 hPa | 0 mm | 0.45 m/s, 223° | - | - |
| 1778025919 | 22.22° C | 77% | 1009.7 hPa | 0 mm | 1.34 m/s, 208° | - | - |
* Rain latest hour (hover to see other rain measurements)
** Current wind speed in m/s (hover to see current wind gust speed)